Telluride, CO

8:13 AM MDT on April 19, 2018 (GMT -0600)
Telluride Regional

Weather History for KTEX - April, 2014

Change the Weather History Date:

Friday, April 4, 2014

  Actual Average Record
Temperature  
Mean Temperature 27 °F -  
Max Temperature 37 °F 41 °F 59 °F (2007)
Min Temperature 17 °F 23 °F 10 °F (2003)
Degree Days  
Heating Degree Days 38    
Moisture  
Dew Point 13 °F    
Average Humidity 54    
Maximum Humidity 80    
Minimum Humidity 28    
Precipitation  
Precipitation 0.00 in - - ()
Sea Level Pressure  
Sea Level Pressure 30.05 in    
Wind  
Wind Speed 5 mph (SE)    
Max Wind Speed 12 mph    
Max Gust Speed 18 mph    
Visibility 10 miles    
Events      
Averages and records for this station are not official NWS values.
T = Trace of Precipitation, MM = Missing Value Source: NWS Daily Summary

Daily Weather History Graph

Daily Weather History Graph

Search for Another Location

Airport or City:

Astronomy

Apr. 04, 2014 Rise Set
Actual Time 6:52 AM MDT 7:37 PM MDT
Civil Twilight 6:25 AM MDT 8:04 PM MDT
Nautical Twilight 5:54 AM MDT 8:35 PM MDT
Astronomical Twilight 5:21 AM MDT 9:08 PM MDT
Moon 10:15 AM MDT (4/4) No Moon Set
Length of Visible Light 13h 38m
Length of Day
12h 45m
Waxing Crescent, 26% of the Moon is Illuminated
Apr 4
Waxing Crescent
Apr 7
First Quarter
Apr 15
Full
Apr 22
Last Quarter
Apr 29
New

Hourly Weather History & Observations

Time (MDT) Temp. Windchill Dew Point Humidity Pressure Visibility Wind Dir Wind Speed Gust Speed Precip Events Conditions
12:18 AM 19.4 °F 11.5 °F 14.0 °F 80% 30.12 in 10.0 mi ESE 5.8 mph - N/A   Clear
12:38 AM 19.4 °F 11.5 °F 12.2 °F 74% 30.12 in 10.0 mi ESE 5.8 mph - N/A   Clear
1:18 AM 19.4 °F 10.4 °F 12.2 °F 74% 30.12 in 10.0 mi SE 6.9 mph - N/A   Clear
1:38 AM 19.4 °F 10.4 °F 12.2 °F 74% 30.12 in 10.0 mi SE 6.9 mph - N/A   Clear
2:18 AM 19.4 °F 10.4 °F 12.2 °F 74% 30.10 in 10.0 mi SE 6.9 mph - N/A   Clear
2:38 AM 19.4 °F 10.4 °F 12.2 °F 74% 30.10 in 10.0 mi SE 6.9 mph - N/A   Clear
2:58 AM 19.4 °F 8.6 °F 12.2 °F 74% 30.10 in 10.0 mi SE 9.2 mph - N/A   Clear
3:18 AM 19.4 °F 11.5 °F 10.4 °F 68% 30.10 in 10.0 mi ESE 5.8 mph - N/A   Clear
3:38 AM 17.6 °F 7.3 °F 10.4 °F 73% 30.10 in 10.0 mi SE 8.1 mph - N/A   Clear
3:58 AM 17.6 °F 9.3 °F 10.4 °F 73% 30.10 in 10.0 mi East 5.8 mph - N/A   Clear
4:18 AM 17.6 °F 9.3 °F 10.4 °F 73% 30.10 in 10.0 mi SE 5.8 mph - N/A   Clear
4:38 AM 19.4 °F 12.8 °F 10.4 °F 68% 30.10 in 10.0 mi South 4.6 mph - N/A   Clear
5:18 AM 17.6 °F 7.3 °F 10.4 °F 73% 30.09 in 10.0 mi SE 8.1 mph - N/A   Clear
5:39 AM 17.6 °F 8.2 °F 10.4 °F 73% 30.09 in 10.0 mi East 6.9 mph - N/A   Clear
6:18 AM 17.6 °F 6.4 °F 10.4 °F 73% 30.09 in 10.0 mi SE 9.2 mph - N/A   Clear
6:58 AM 19.4 °F 10.4 °F 10.4 °F 68% 30.08 in 10.0 mi SE 6.9 mph - N/A   Mostly Cloudy
7:18 AM 19.4 °F 10.4 °F 10.4 °F 68% 30.09 in 10.0 mi SE 6.9 mph - N/A   Mostly Cloudy
7:38 AM 19.4 °F 11.5 °F 10.4 °F 68% 30.10 in 10.0 mi SE 5.8 mph - N/A   Scattered Clouds
7:58 AM 21.2 °F 13.6 °F 10.4 °F 63% 30.10 in 10.0 mi SE 5.8 mph - N/A   Clear
8:18 AM 21.2 °F 13.6 °F 10.4 °F 63% 30.10 in 10.0 mi SE 5.8 mph - N/A   Clear
8:38 AM 23.0 °F 15.8 °F 12.2 °F 63% 30.10 in 10.0 mi SE 5.8 mph - N/A   Clear
8:58 AM 24.8 °F 20.5 °F 12.2 °F 59% 30.10 in 10.0 mi ESE 3.5 mph - N/A   Clear
9:18 AM 26.6 °F 22.6 °F 12.2 °F 55% 30.09 in 10.0 mi ESE 3.5 mph - N/A   Clear
9:58 AM 30.2 °F - 10.4 °F 44% 30.10 in 10.0 mi Calm Calm - N/A   Clear
10:18 AM 32.0 °F - 8.6 °F 38% 30.10 in 10.0 mi Calm Calm - N/A   Clear
10:38 AM 33.8 °F - 8.6 °F 35% 30.10 in 10.0 mi Calm Calm - N/A   Clear
10:58 AM 33.8 °F 30.8 °F 6.8 °F 32% 30.09 in 10.0 mi SW 3.5 mph - N/A   Clear
11:20 AM 33.8 °F 28.6 °F 8.6 °F 35% 30.08 in 10.0 mi NW 5.8 mph - N/A   Clear
11:38 AM 33.8 °F - 6.8 °F 32% 30.08 in 10.0 mi Calm Calm - N/A   Clear
12:58 PM 37.4 °F 34.9 °F 6.8 °F 28% 30.05 in 10.0 mi SSW 3.5 mph - N/A   Mostly Cloudy
1:20 PM 37.4 °F 34.9 °F 8.6 °F 30% 30.04 in 10.0 mi West 3.5 mph - N/A   Scattered Clouds
1:38 PM 37.4 °F 32.1 °F 8.6 °F 30% 30.03 in 10.0 mi West 6.9 mph - N/A   Mostly Cloudy
1:58 PM 37.4 °F 31.4 °F 8.6 °F 30% 30.02 in 10.0 mi West 8.1 mph 18.4 mph N/A   Overcast
2:59 PM 37.4 °F 33.8 °F 10.4 °F 33% 30.01 in 10.0 mi NW 4.6 mph - N/A   Mostly Cloudy
3:18 PM 37.4 °F 29.8 °F 10.4 °F 33% 30.00 in 10.0 mi South 11.5 mph 16.1 mph N/A   Overcast
3:38 PM 35.6 °F 29.2 °F 10.4 °F 35% 30.01 in 10.0 mi South 8.1 mph - N/A   Overcast
3:58 PM 35.6 °F 31.7 °F 8.6 °F 33% 30.00 in 10.0 mi South 4.6 mph - N/A   Overcast
4:18 PM 33.8 °F 25.8 °F 19.4 °F 56% 30.00 in 10.0 mi SE 10.4 mph 18.4 mph N/A   Overcast
4:38 PM 33.8 °F 27.7 °F 19.4 °F 56% 30.00 in 10.0 mi East 6.9 mph 18.4 mph N/A   Overcast
4:59 PM 35.6 °F 29.9 °F 17.6 °F 48% 30.00 in 10.0 mi ENE 6.9 mph - N/A   Overcast
5:39 PM 33.8 °F 29.6 °F 17.6 °F 52% 29.99 in 10.0 mi East 4.6 mph - N/A   Mostly Cloudy
5:58 PM 35.6 °F 31.7 °F 17.6 °F 48% 29.99 in 10.0 mi East 4.6 mph - N/A   Overcast
6:18 PM 35.6 °F - 17.6 °F 48% 29.99 in 10.0 mi Calm Calm - N/A   Overcast
6:38 PM 35.6 °F - 17.6 °F 48% 29.99 in 10.0 mi Calm Calm - N/A   Overcast
6:58 PM 35.6 °F - 15.8 °F 44% 29.99 in 10.0 mi Calm Calm - N/A   Overcast
7:18 PM 35.6 °F - 15.8 °F 44% 29.99 in 10.0 mi Calm Calm - N/A   Overcast
7:38 PM 33.8 °F - 15.8 °F 48% 29.99 in 10.0 mi Calm Calm - N/A   Overcast
8:18 PM 33.8 °F - 15.8 °F 48% 29.99 in 10.0 mi Calm Calm - N/A   Overcast
8:38 PM 33.8 °F - 15.8 °F 48% 30.00 in 10.0 mi Calm Calm - N/A   Overcast
9:18 PM 33.8 °F 27.0 °F 19.4 °F 56% 30.01 in 10.0 mi ESE 8.1 mph - N/A   Overcast
9:38 PM 33.8 °F 27.7 °F 10.4 °F 38% 30.01 in 10.0 mi SSE 6.9 mph - N/A   Overcast
10:18 PM 33.8 °F 30.8 °F 15.8 °F 48% 30.01 in 10.0 mi East 3.5 mph - N/A   Overcast
10:38 PM 32.0 °F 25.6 °F 17.6 °F 55% 30.00 in 10.0 mi East 6.9 mph - N/A   Overcast
10:59 PM 32.0 °F 27.5 °F 17.6 °F 55% 29.99 in 10.0 mi East 4.6 mph - N/A   Overcast
11:18 PM 32.0 °F - 15.8 °F 51% 29.99 in 10.0 mi Calm Calm - N/A   Overcast
11:40 PM 32.0 °F 27.5 °F 15.8 °F 51% 29.99 in 10.0 mi East 4.6 mph - N/A   Overcast
11:58 PM 32.0 °F 28.7 °F 15.8 °F 51% 29.99 in 10.0 mi ENE 3.5 mph - N/A   Overcast